Temperature
20 21 20 20 20 19 19 19 19 19 19 19 19 19 19 19 19 19 19 19 19 19 19 19 19 18 18 18 18 19 18 18 18 18 18 18 18 18 18 18 18 18 18
21 21 20 20 20 20 19 19 19 19 19 19 19 19 19 19 19 19 19 19 19 19 19 19 19 18 18 18 18 18 18 18 18 18 18 18 18 18 18 18 18 18 18
21 21 20 20 20 20 19 19 19 19 19 19 19 19 19 19 19 19 19 19 19 19 19 19 19 19 18 18 18 18 18 18 18 18 18 18 18 18 18 18 18 18 18
21 21 20 20 20 20 19 19 19 19 19 19 19 19 19 19 19 19 19 19 19 19 19 19 19 18 18 18 18 18 18 18 18 18 18 18 18 18 18 18 18 18 18
21 21 21 20 20 20 20 19 19 19 19 19 19 19 19 19 19 19 19 19 19 19 19 18 18 18 18 18 18 18 18 18 18 18 18 18 18 18 18 18 18 18 18
21 21 21 21 20 20 20 19 19 19 19 19 19 19 19 19 19 19 19 19 19 19 19 18 18 18 18 18 18 18 18 18 18 18 18 18 18 18 18 18 18 18 18
21 21 21 21 20 20 20 19 19 19 19 19 19 19 19 19 19 19 19 19 19 19 19 18 18 18 18 18 18 18 18 18 18 18 18 18 18 18 18 18 18 18 18
22 21 21 21 20 20 20 20 19 19 19 19 19 19 19 19 19 19 19 19 19 19 19 19 18 18 18 18 18 18 18 18 18 18 18 18 18 18 18 18 18 18 18
22 21 21 21 20 20 20 20 20 19 19 19 19 19 19 19 19 19 19 19 19 19 18 18 18 18 18 18 18 18 18 18 18 18 18 18 18 18 18 18 18 18 18
22 21 21 21 20 20 20 20 20 19 19 19 19 19 19 19 19 19 19 19 19 19 19 18 18 18 18 18 19 19 19 18 18 18 18 18 18 18 18 18 18 18 18
22 21 21 21 20 20 20 20 20 19 19 19 19 19 19 19 19 19 19 19 19 19 18 18 18 18 18 18 19 19 19 19 18 18 18 18 18 18 18 18 18 18 18
22 21 21 20 20 20 20 20 19 19 19 19 19 19 19 19 19 18 19 19 19 18 18 18 18 18 18 18 18 19 19 19 18 18 18 18 18 18 18 18 18 18 18
22 21 21 21 20 20 20 20 20 19 19 19 19 19 19 19 18 18 18 18 18 18 18 18 18 18 18 18 19 19 19 19 18 18 18 18 18 18 18 18 18 18 18
21 21 21 20 20 20 20 20 20 19 19 19 19 19 19 19 19 19 19 18 18 18 18 18 18 18 18 18 19 19 19 19 18 18 18 18 18 18 18 18 18 18 17
21 21 20 20 20 20 20 20 19 19 19 19 19 19 19 19 19 19 19 19 18 18 18 18 18 18 18 18 19 19 19 19 19 19 18 18 18 18 18 18 18 17 18
21 21 20 20 20 20 20 20 20 19 19 19 19 19 19 19 19 19 19 19 19 18 18 18 18 18 18 18 19 19 19 19 18 18 18 18 18 18 18 18 18 18 18
21 21 20 20 20 20 19 19 19 19 19 19 19 19 19 19 19 19 19 19 19 18 18 18 18 18 19 19 19 19 19 18 18 18 18 18 18 18 18 18 18 18 17
21 21 20 20 20 20 19 19 19 19 19 19 19 19 19 19 19 19 19 19 19 19 19 18 18 18 18 19 19 19 19 18 18 18 18 18 18 18 18 18 18 18 17
21 21 20 20 19 19 19 19 19 19 19 19 19 19 19 19 19 19 19 19 19 19 19 18 18 18 18 19 19 18 18 18 18 18 18 18 18 18 18 18 18 17 17
21 20 20 20 20 19 19 19 19 19 19 19 19 19 19 19 19 19 19 19 19 18 19 19 19 18 18 19 19 19 19 19 19 18 18 18 18 18 18 18 18 18 17
21 20 20 20 20 19 19 19 19 19 19 19 19 19 19 19 18 19 19 19 18 18 18 18 18 18 18 19 19 19 19 19 19 19 19 18 18 18 18 18 18 18 17
21 21 20 20 20 19 19 19 19 19 19 19 19 19 18 18 18 18 19 18 18 18 18 18 18 18 18 18 18 18 18 19 19 19 19 19 18 18 18 18 18 18 18
21 21 20 20 20 19 19 19 19 19 19 19 19 18 18 18 18 18 18 18 18 18 18 18 18 18 18 18 18 18 18 18 18 19 19 18 18 18 18 18 18 18 18
22 21 20 20 20 19 19 19 19 19 19 19 18 18 18 18 18 18 18 18 18 18 18 18 18 18 18 18 18 18 18 18 18 18 18 18 18 18 18 18 18 18 18
22 21 20 20 20 20 19 19 19 19 19 19 18 18 18 18 18 18 18 18 18 18 18 17 17 17 17 17 18 18 18 18 18 18 18 18 18 18 18 18 18 18 18
23 21 21 20 20 20 19 19 19 19 19 19 18 18 18 18 18 18 18 18 18 18 17 17 17 17 17 17 17 17 17 18 18 18 18 18 18 18 18 18 18 18 17
Wind_Speed
9 11 10 10 9 9 8 8 7 7 7 7 6 6 6 5 5 5 4 5 5 6 6 7 7 7 7 7 7 8 8 8 9 9 9 9 9 9 8 7 7 7 9
11 12 11 10 10 9 8 7 7 7 7 7 6 6 6 5 5 4 5 5 5 6 6 7 7 7 7 7 8 8 8 9 9 9 10 10 8 8 8 7 6 7 10
12 12 12 10 10 9 8 7 7 7 7 7 6 6 6 6 5 6 6 6 5 5 6 6 6 6 6 7 7 8 8 9 9 10 10 9 9 9 9 8 8 9 9
11 12 12 11 10 9 8 8 8 7 7 7 6 6 7 7 6 7 7 6 6 6 5 5 5 5 6 6 7 8 8 9 9 9 9 8 9 10 11 10 10 10 9
12 13 13 11 10 9 8 8 7 7 7 7 8 8 8 7 7 7 6 6 6 6 5 5 5 5 5 6 7 7 8 8 8 8 7 7 8 10 12 11 11 11 10
11 12 13 12 10 9 8 8 7 7 7 8 8 8 8 7 7 6 6 5 5 5 5 4 5 5 5 6 6 7 8 8 7 8 7 8 9 12 12 13 12 11 11
11 11 12 12 11 9 9 8 7 7 7 8 8 7 7 6 5 6 6 5 5 4 4 4 4 4 5 5 6 7 7 8 8 6 5 7 9 13 13 12 12 11 11
10 10 12 13 12 10 9 9 7 7 7 7 7 6 6 5 5 5 5 5 4 3 3 3 4 4 4 5 6 8 9 9 7 6 7 8 11 13 13 12 12 11 11
9 8 10 11 10 10 9 9 7 6 6 6 6 5 4 4 4 4 4 4 3 2 2 3 3 4 5 6 7 8 10 10 7 5 6 8 12 13 12 12 12 12 11
8 7 6 8 9 8 8 9 8 6 5 6 5 3 3 4 5 5 4 4 3 3 2 3 4 5 6 7 8 9 10 9 8 6 5 9 13 12 12 12 12 12 12
7 6 6 6 5 5 6 8 9 7 5 5 5 5 3 3 4 5 4 5 5 3 3 4 5 6 7 7 9 10 9 7 7 6 6 11 13 13 12 12 12 12 12
6 6 6 6 5 3 3 6 5 5 5 4 3 3 4 3 2 3 6 6 5 5 5 6 7 7 7 6 8 10 6 6 5 5 8 13 13 13 12 12 12 12 12
6 6 6 6 5 4 4 3 2 3 4 4 3 2 1 1 1 2 3 5 5 5 5 5 6 6 4 4 3 4 5 4 3 4 9 13 13 12 11 12 11 11 12
6 6 7 7 6 5 4 2 2 2 2 3 3 2 2 1 1 1 0 1 2 2 2 2 2 2 2 3 3 3 3 2 3 5 8 12 13 13 12 11 11 11 12
5 6 7 6 5 4 3 2 2 2 2 3 3 2 2 1 1 1 1 1 1 1 1 1 1 1 2 2 2 2 2 3 4 5 7 11 13 14 13 12 11 11 12
5 5 6 6 6 4 3 1 1 1 2 2 3 3 2 2 1 1 1 1 1 1 0 1 2 1 2 2 2 1 1 2 3 5 7 9 13 14 13 13 12 13 13
6 5 5 6 6 4 2 0 1 1 2 2 3 3 2 2 1 1 1 1 1 0 1 1 1 1 2 1 1 1 0 1 3 5 6 8 9 12 13 13 12 13 14
6 5 3 4 6 4 2 2 2 2 2 2 2 2 3 2 2 1 1 1 1 0 0 1 1 1 1 1 1 1 0 2 2 4 5 6 7 8 11 12 12 13 15
6 5 5 4 5 3 2 1 1 2 2 1 2 2 2 2 3 2 1 2 2 1 1 2 2 2 2 2 1 1 1 2 2 3 3 5 6 8 8 11 11 12 14
7 6 5 4 3 2 2 1 1 1 1 1 2 2 2 2 2 2 2 2 2 2 3 3 3 2 2 2 3 1 1 2 2 2 3 3 4 6 7 8 9 10 13
7 6 5 4 3 1 1 1 0 0 1 1 2 2 2 2 3 2 3 3 3 2 2 2 2 3 3 2 1 1 1 2 2 2 2 3 4 5 6 7 8 8 9
8 7 6 4 3 2 1 1 1 0 0 2 2 2 1 2 2 3 3 3 3 2 3 3 2 3 3 2 1 1 1 1 1 3 4 3 4 4 5 7 7 7 7
8 7 6 5 4 2 1 1 0 1 1 1 2 1 1 2 2 2 2 2 2 2 2 2 2 2 3 3 1 1 1 1 1 1 2 2 2 2 3 4 6 7 8
8 8 7 6 4 3 2 1 1 1 1 1 1 1 1 2 1 1 2 2 2 2 2 2 2 2 3 3 2 2 1 1 0 1 1 1 2 2 3 3 4 6 8
8 8 8 6 5 3 2 1 1 1 1 1 1 1 0 1 1 1 1 1 2 2 2 3 3 3 2 3 3 3 3 2 2 1 2 2 1 1 2 2 2 3 6
8 8 9 8 6 4 3 2 2 0 1 1 1 1 0 1 1 2 2 2 2 2 3 3 2 3 3 3 3 3 2 2 2 1 2 3 2 2 2 2 2 3 4
Wind_Direction
90 99 99 91 85 85 88 89 92 93 95 99 105 107 105 107 107 111 121 129 136 143 147 150 156 161 161 163 165 158 157 152 152 151 149 148 151 151 152 155 156 135 139
98 104 101 92 86 84 85 90 94 96 96 99 107 112 111 110 110 114 119 119 130 145 153 153 153 160 165 171 172 169 168 166 164 164 161 158 158 158 160 159 149 142 147
104 111 104 94 90 87 89 91 93 94 95 100 106 111 111 107 101 106 109 111 124 138 146 153 156 163 171 175 178 179 180 178 175 177 176 166 158 164 165 160 153 154 153
104 106 102 101 94 90 91 92 91 90 91 93 97 106 104 101 96 99 104 108 113 124 137 146 158 164 172 176 179 185 188 187 185 189 194 183 165 166 169 169 165 162 160
97 102 109 109 103 100 99 97 92 90 88 90 90 100 102 98 96 95 96 102 109 116 127 140 152 162 171 177 184 191 191 192 194 202 209 170 155 163 170 173 171 170 170
104 105 115 115 110 107 108 103 100 92 88 92 94 98 100 96 98 101 102 104 107 113 124 136 150 163 172 180 190 194 200 204 208 215 194 170 159 165 173 176 176 174 174
104 110 120 121 117 114 107 101 97 92 89 92 95 95 97 99 103 111 115 113 111 112 126 146 163 173 180 188 199 206 212 221 225 225 184 163 158 168 177 177 177 177 177
104 113 126 130 128 129 122 114 107 99 94 96 99 101 104 108 110 119 122 120 117 119 139 160 177 181 195 204 212 216 221 230 225 213 173 164 167 174 177 178 178 177 179
100 110 130 138 136 137 131 129 124 116 115 115 113 112 119 127 131 138 132 129 137 150 163 179 189 204 216 219 222 224 225 227 232 224 187 168 170 172 176 180 182 182 184
94 98 111 127 139 143 143 145 144 140 138 139 138 141 148 146 163 173 169 164 168 181 198 204 210 220 222 225 228 229 229 232 226 206 183 169 173 174 176 181 186 188 188
81 92 97 97 115 129 134 145 156 158 160 160 168 177 180 195 185 179 171 168 179 196 211 218 223 224 227 229 230 230 233 224 206 188 174 171 177 177 180 184 190 191 189
81 82 87 89 89 102 105 129 153 148 153 166 161 183 185 199 209 151 161 172 188 209 221 231 236 233 230 228 224 224 226 212 201 182 173 172 178 180 182 183 187 190 190
83 76 86 82 78 73 76 100 108 118 135 148 145 153 158 175 202 148 171 188 201 215 228 227 230 236 234 231 217 205 207 202 179 170 163 173 174 178 184 185 186 190 193
89 79 73 79 74 61 51 55 81 92 117 112 109 113 97 81 37 43 72 184 199 225 232 248 257 264 268 249 232 224 205 203 161 151 170 176 176 180 185 187 189 194 195
98 89 84 82 75 76 61 6 76 74 83 101 112 76 67 68 40 49 0 307 239 221 206 250 276 279 290 269 246 242 200 176 175 158 164 177 179 183 186 189 191 196 197
107 101 100 100 90 82 90 55 50 87 98 95 100 83 54 58 32 30 339 323 307 262 242 259 248 245 256 280 280 269 257 154 170 159 158 177 182 185 189 192 195 199 199
115 102 112 118 105 95 84 65 104 95 93 84 90 82 63 54 6 353 333 309 313 293 231 254 270 273 260 267 277 274 235 143 155 162 163 174 180 191 195 194 199 200 198
115 111 97 99 105 106 86 36 38 54 70 76 91 89 73 38 357 353 14 359 325 319 338 291 317 297 311 319 290 286 110 112 133 154 163 173 179 186 194 199 201 199 197
115 115 97 77 89 94 92 70 72 81 64 57 69 74 59 17 9 351 27 4 319 19 6 335 18 336 328 327 281 208 170 144 173 175 164 172 178 179 179 191 199 201 198
128 122 115 105 96 109 103 73 40 87 104 87 72 78 56 2 14 1 0 5 343 25 22 13 6 335 308 303 296 298 185 152 181 169 177 175 181 182 179 181 185 201 202
137 133 130 124 113 111 88 105 184 76 100 106 106 91 67 18 10 17 9 0 1 30 20 360 354 331 322 310 312 314 267 178 170 200 190 182 191 185 177 174 176 185 189
147 144 139 144 141 144 138 193 183 74 328 110 77 89 61 42 5 16 25 354 10 20 13 0 353 335 323 332 317 326 331 310 252 210 190 192 197 187 183 178 171 176 176
152 152 152 145 147 151 168 196 216 131 44 73 110 101 99 74 53 6 8 4 355 19 13 333 357 332 324 321 345 344 327 343 305 246 199 182 182 182 191 173 176 177 184
157 155 143 142 145 155 163 223 198 134 99 73 103 103 99 80 65 35 20 359 343 358 4 336 5 326 318 323 323 305 301 313 279 289 284 199 212 204 203 197 178 177 185
159 155 148 143 147 150 165 185 202 59 60 68 64 57 95 95 65 44 61 360 351 3 358 355 358 338 335 341 334 325 335 332 303 274 300 306 280 230 205 199 184 182 187
156 155 152 145 151 161 175 176 162 150 11 46 44 3 301 97 47 30 44 24 16 2 2 354 337 345 351 348 340 336 341 340 330 322 305 301 294 272 241 197 191 201 202
Height
1497 1495 1495 1495 1494 1494 1494 1495 1495 1496 1496 1497 1498 1498 1499 1499 1499 1498 1498 1499 1500 1503 1505 1508 1511 1513 1515 1517 1518 1520 1522 1523 1525 1526 1527 1529 1530 1532 1533 1535 1536 1537 1539
1497 1496 1496 1496 1496 1495 1496 1496 1496 1497 1497 1497 1498 1498 1499 1499 1498 1497 1497 1498 1499 1501 1505 1508 1511 1513 1515 1516 1518 1520 1521 1523 1524 1526 1527 1529 1530 1532 1533 1535 1536 1537 1539
1498 1497 1497 1497 1497 1496 1497 1497 1497 1498 1498 1498 1498 1498 1499 1499 1498 1497 1498 1498 1499 1501 1504 1507 1510 1512 1514 1515 1517 1519 1521 1523 1524 1526 1527 1529 1530 1531 1533 1534 1536 1537 1539
1500 1499 1499 1498 1498 1497 1497 1498 1498 1498 1499 1498 1497 1498 1499 1500 1500 1500 1500 1500 1501 1502 1505 1508 1510 1512 1513 1515 1516 1518 1520 1522 1524 1525 1527 1529 1530 1531 1533 1534 1536 1537 1539
1501 1500 1500 1500 1499 1499 1499 1499 1499 1499 1499 1499 1497 1497 1500 1502 1503 1503 1503 1504 1504 1506 1507 1509 1511 1512 1513 1515 1516 1518 1519 1521 1523 1525 1527 1528 1530 1531 1533 1534 1536 1537 1538
1502 1501 1501 1501 1500 1500 1500 1500 1500 1501 1501 1500 1500 1500 1502 1504 1504 1505 1506 1506 1507 1508 1509 1510 1511 1512 1513 1515 1516 1518 1519 1521 1523 1524 1526 1528 1529 1530 1531 1533 1535 1536 1538
1503 1503 1502 1502 1502 1502 1502 1502 1502 1502 1502 1502 1503 1503 1504 1506 1506 1507 1507 1508 1508 1509 1510 1511 1512 1512 1514 1515 1516 1517 1519 1520 1522 1524 1525 1527 1528 1530 1531 1533 1534 1535 1537
1504 1504 1504 1503 1503 1503 1503 1503 1504 1504 1504 1504 1505 1506 1506 1507 1508 1508 1509 1509 1510 1510 1511 1511 1512 1513 1514 1514 1515 1517 1518 1519 1521 1523 1524 1525 1527 1528 1530 1532 1533 1534 1536
1506 1506 1505 1505 1505 1505 1505 1505 1506 1506 1506 1506 1507 1508 1508 1509 1509 1510 1510 1511 1511 1511 1511 1512 1512 1513 1513 1514 1515 1516 1517 1518 1519 1521 1523 1524 1526 1527 1529 1530 1532 1533 1535
1507 1507 1507 1507 1507 1507 1507 1507 1507 1507 1508 1508 1509 1509 1510 1510 1511 1511 1512 1512 1512 1512 1512 1512 1512 1513 1513 1514 1515 1515 1516 1517 1518 1520 1521 1522 1524 1526 1527 1529 1530 1532 1533
1508 1509 1509 1509 1509 1509 1509 1508 1509 1509 1509 1510 1510 1511 1511 1512 1512 1512 1513 1513 1513 1513 1513 1513 1513 1513 1513 1514 1514 1515 1515 1515 1516 1517 1519 1521 1522 1524 1525 1527 1528 1530 1532
1509 1510 1510 1509 1510 1510 1510 1510 1510 1511 1511 1511 1511 1512 1512 1513 1514 1514 1513 1513 1513 1513 1513 1513 1513 1513 1513 1513 1514 1514 1514 1514 1515 1516 1517 1519 1520 1522 1523 1525 1526 1528 1530
1511 1511 1511 1511 1510 1511 1511 1511 1512 1512 1512 1512 1513 1513 1514 1514 1514 1514 1514 1514 1514 1513 1513 1513 1513 1513 1513 1513 1513 1513 1513 1513 1514 1515 1516 1518 1519 1520 1522 1523 1525 1526 1528
1511 1512 1512 1511 1511 1511 1511 1512 1513 1513 1513 1514 1514 1514 1514 1514 1514 1514 1514 1514 1514 1514 1514 1513 1513 1513 1513 1513 1513 1513 1512 1512 1513 1513 1514 1516 1517 1518 1520 1521 1523 1524 1526
1512 1512 1512 1512 1512 1512 1512 1512 1513 1514 1514 1514 1514 1514 1515 1515 1515 1515 1515 1514 1514 1513 1513 1513 1513 1512 1512 1512 1512 1512 1512 1511 1511 1512 1512 1514 1515 1516 1518 1520 1521 1522 1524
1512 1513 1513 1512 1512 1512 1512 1513 1514 1514 1515 1515 1515 1515 1515 1515 1515 1515 1515 1514 1514 1514 1513 1513 1512 1512 1512 1512 1511 1511 1511 1510 1510 1510 1510 1512 1513 1515 1516 1517 1518 1520 1521
1512 1513 1513 1513 1512 1513 1513 1513 1514 1515 1515 1515 1515 1515 1515 1515 1515 1515 1515 1514 1514 1514 1513 1513 1512 1512 1511 1511 1510 1510 1509 1508 1507 1508 1509 1510 1512 1513 1514 1515 1516 1516 1518
1512 1512 1513 1513 1513 1513 1513 1513 1514 1515 1515 1515 1515 1515 1515 1515 1515 1515 1515 1514 1514 1513 1513 1512 1512 1511 1511 1510 1510 1509 1509 1508 1507 1508 1508 1509 1510 1511 1512 1513 1513 1512 1515
1512 1512 1512 1513 1513 1513 1514 1514 1514 1515 1516 1516 1515 1515 1515 1515 1515 1515 1515 1514 1514 1513 1513 1512 1512 1511 1510 1510 1509 1508 1508 1508 1508 1508 1508 1509 1509 1510 1511 1512 1512 1512 1514
1511 1512 1512 1512 1513 1513 1514 1514 1514 1515 1516 1516 1515 1516 1515 1515 1515 1515 1514 1514 1514 1513 1512 1512 1511 1511 1510 1510 1509 1509 1508 1508 1507 1508 1508 1509 1509 1509 1510 1510 1510 1511 1513
1510 1511 1511 1512 1512 1513 1513 1514 1515 1515 1515 1515 1516 1516 1515 1515 1515 1515 1514 1514 1513 1513 1512 1511 1511 1511 1510 1510 1509 1508 1508 1508 1507 1507 1508 1508 1509 1509 1509 1510 1510 1511 1511
1509 1510 1511 1511 1512 1513 1513 1514 1515 1515 1516 1516 1516 1515 1515 1515 1515 1515 1514 1513 1513 1512 1512 1511 1511 1510 1510 1510 1510 1509 1509 1509 1508 1508 1507 1508 1508 1509 1509 1509 1509 1510 1510
1509 1509 1510 1511 1512 1513 1513 1514 1515 1515 1516 1516 1516 1515 1515 1515 1515 1514 1514 1513 1513 1512 1512 1511 1511 1510 1510 1510 1510 1510 1509 1509 1508 1508 1507 1507 1507 1508 1508 1508 1508 1508 1508
1508 1509 1510 1511 1511 1512 1513 1514 1514 1515 1515 1516 1516 1516 1515 1515 1514 1514 1514 1513 1512 1512 1512 1511 1511 1511 1510 1509 1509 1509 1510 1509 1509 1508 1508 1507 1507 1506 1506 1507 1507 1507 1507
1507 1508 1509 1510 1511 1512 1513 1513 1514 1515 1515 1516 1516 1516 1516 1515 1514 1514 1513 1513 1512 1512 1511 1511 1510 1510 1510 1509 1509 1509 1509 1508 1508 1508 1507 1506 1506 1505 1505 1504 1505 1505 1505
1506 1507 1508 1509 1510 1511 1512 1513 1514 1514 1515 1515 1515 1515 1515 1515 1514 1514 1513 1512 1512 1511 1511 1510 1510 1509 1509 1508 1508 1508 1508 1507 1507 1507 1506 1505 1504 1504 1504 1503 1503 1502 1503